Year,Month,Day,Hour,Minute,Value (Times are PST for temperature in C)
2018,03,12,00,00,7.20
2018,03,12,00,01,7.20
2018,03,12,00,02,7.20
2018,03,12,00,03,7.20
2018,03,12,00,04,7.20
2018,03,12,00,05,7.20
2018,03,12,00,06,7.20
2018,03,12,00,07,7.20
2018,03,12,00,08,7.20
2018,03,12,00,09,7.20
2018,03,12,00,10,7.30
2018,03,12,00,11,7.30
2018,03,12,00,12,7.30
2018,03,12,00,13,7.30
2018,03,12,00,14,7.30
2018,03,12,00,15,7.30
2018,03,12,00,16,7.30
2018,03,12,00,17,7.30
2018,03,12,00,18,7.30
2018,03,12,00,19,7.30
2018,03,12,00,20,7.30
2018,03,12,00,21,7.30
2018,03,12,00,22,7.30
2018,03,12,00,23,7.30
2018,03,12,00,24,7.30
2018,03,12,00,25,7.30
2018,03,12,00,26,7.30
2018,03,12,00,27,7.30
2018,03,12,00,28,7.30
2018,03,12,00,29,7.40
2018,03,12,00,30,7.40
2018,03,12,00,31,7.40
2018,03,12,00,32,7.40
2018,03,12,00,33,7.50
2018,03,12,00,34,7.50
2018,03,12,00,35,7.50
2018,03,12,00,36,7.60
2018,03,12,00,37,7.60
2018,03,12,00,38,7.60
2018,03,12,00,39,7.60
2018,03,12,00,40,7.60
2018,03,12,00,41,7.60
2018,03,12,00,42,7.60
2018,03,12,00,43,7.70
2018,03,12,00,44,7.70
2018,03,12,00,45,7.70
2018,03,12,00,46,7.70
2018,03,12,00,47,7.70
2018,03,12,00,48,7.70
2018,03,12,00,49,7.70
2018,03,12,00,50,7.70
2018,03,12,00,51,7.70
2018,03,12,00,52,7.70
2018,03,12,00,53,7.70
2018,03,12,00,54,7.70
2018,03,12,00,55,7.70
2018,03,12,00,56,7.70
2018,03,12,00,57,7.70
2018,03,12,00,58,7.70
2018,03,12,00,59,7.70
2018,03,12,01,00,7.70
2018,03,12,01,01,7.70
2018,03,12,01,02,7.70
2018,03,12,01,03,7.70
2018,03,12,01,04,7.70
2018,03,12,01,05,7.70
2018,03,12,01,06,7.70
2018,03,12,01,07,7.70
2018,03,12,01,08,7.70
2018,03,12,01,09,7.70
2018,03,12,01,10,7.70
2018,03,12,01,11,7.70
2018,03,12,01,12,7.70
2018,03,12,01,13,7.70
2018,03,12,01,14,7.70
2018,03,12,01,15,7.70
2018,03,12,01,16,7.70
2018,03,12,01,17,7.70
2018,03,12,01,18,7.70
2018,03,12,01,19,7.70
2018,03,12,01,20,7.70
2018,03,12,01,21,7.70
2018,03,12,01,22,7.70
2018,03,12,01,23,7.70
2018,03,12,01,24,7.70
2018,03,12,01,25,7.70
2018,03,12,01,26,7.70
2018,03,12,01,27,7.70
2018,03,12,01,28,7.70
2018,03,12,01,29,7.70
2018,03,12,01,30,7.70
2018,03,12,01,31,7.70
2018,03,12,01,32,7.70
2018,03,12,01,33,7.70
2018,03,12,01,34,7.70
2018,03,12,01,35,7.70
2018,03,12,01,36,7.70
2018,03,12,01,37,7.60
2018,03,12,01,38,7.60
2018,03,12,01,39,7.60
2018,03,12,01,40,7.60
2018,03,12,01,41,7.70
2018,03,12,01,42,7.70
2018,03,12,01,43,7.70
2018,03,12,01,44,7.70
2018,03,12,01,45,7.70
2018,03,12,01,46,7.70
2018,03,12,01,47,7.70
2018,03,12,01,48,7.70
2018,03,12,01,49,7.70
2018,03,12,01,50,7.70
2018,03,12,01,51,7.70
2018,03,12,01,52,7.70
2018,03,12,01,53,7.70
2018,03,12,01,54,7.70
2018,03,12,01,55,7.70
2018,03,12,01,56,7.70
2018,03,12,01,57,7.70
2018,03,12,01,58,7.70
2018,03,12,01,59,7.80
2018,03,12,02,00,7.80
2018,03,12,02,01,7.80
2018,03,12,02,02,7.80
2018,03,12,02,03,7.80
2018,03,12,02,04,7.80
2018,03,12,02,05,7.90
2018,03,12,02,06,7.90
2018,03,12,02,07,7.90
2018,03,12,02,08,8.00
2018,03,12,02,09,8.10
2018,03,12,02,10,8.20
2018,03,12,02,11,8.20
2018,03,12,02,12,8.30
2018,03,12,02,13,8.30
2018,03,12,02,14,8.40
2018,03,12,02,15,8.40
2018,03,12,02,16,8.50
2018,03,12,02,17,8.50
2018,03,12,02,18,8.50
2018,03,12,02,19,8.50
2018,03,12,02,20,8.50
2018,03,12,02,21,8.60
2018,03,12,02,22,8.60
2018,03,12,02,23,8.70
2018,03,12,02,24,8.60
2018,03,12,02,25,8.60
2018,03,12,02,26,8.60
2018,03,12,02,27,8.70
2018,03,12,02,28,8.70
2018,03,12,02,29,8.70
2018,03,12,02,30,8.70
2018,03,12,02,31,8.70
2018,03,12,02,32,8.70
2018,03,12,02,33,8.70
2018,03,12,02,34,8.70
2018,03,12,02,35,8.70
2018,03,12,02,36,8.70
2018,03,12,02,37,8.70
2018,03,12,02,38,8.60
2018,03,12,02,39,8.60
2018,03,12,02,40,8.60
2018,03,12,02,41,8.50
2018,03,12,02,42,8.50
2018,03,12,02,43,8.40
2018,03,12,02,44,8.40
2018,03,12,02,45,8.40
2018,03,12,02,46,8.40
2018,03,12,02,47,8.40
2018,03,12,02,48,8.40
2018,03,12,02,49,8.40
2018,03,12,02,50,8.40
2018,03,12,02,51,8.30
2018,03,12,02,52,8.30
2018,03,12,02,53,8.30
2018,03,12,02,54,8.30
2018,03,12,02,55,8.40
2018,03,12,02,56,8.40
2018,03,12,02,57,8.40
2018,03,12,02,58,8.40
2018,03,12,02,59,8.40
2018,03,12,03,00,8.40
2018,03,12,03,01,8.40
2018,03,12,03,02,8.40
2018,03,12,03,03,8.40
2018,03,12,03,04,8.40
2018,03,12,03,05,8.40
2018,03,12,03,06,8.40
2018,03,12,03,07,8.50
2018,03,12,03,08,8.40
2018,03,12,03,09,8.40
2018,03,12,03,10,8.40
2018,03,12,03,11,8.40
2018,03,12,03,12,8.50
2018,03,12,03,13,8.50
2018,03,12,03,14,8.50
2018,03,12,03,15,8.50
2018,03,12,03,16,8.40
2018,03,12,03,17,8.40
2018,03,12,03,18,8.40
2018,03,12,03,19,8.40
2018,03,12,03,20,8.40
2018,03,12,03,21,8.40
2018,03,12,03,22,8.40
2018,03,12,03,23,8.40
2018,03,12,03,24,8.40
2018,03,12,03,25,8.40
2018,03,12,03,26,8.30
2018,03,12,03,27,8.30
2018,03,12,03,28,8.30
2018,03,12,03,29,8.30
2018,03,12,03,30,8.30
2018,03,12,03,31,8.30
2018,03,12,03,32,8.30
2018,03,12,03,33,8.30
2018,03,12,03,34,8.30
2018,03,12,03,35,8.30
2018,03,12,03,36,8.30
2018,03,12,03,37,8.30
2018,03,12,03,38,8.30
2018,03,12,03,39,8.30
2018,03,12,03,40,8.30
2018,03,12,03,41,8.30
2018,03,12,03,42,8.30
2018,03,12,03,43,8.20
2018,03,12,03,44,8.20
2018,03,12,03,45,8.20
2018,03,12,03,46,8.20
2018,03,12,03,47,8.20
2018,03,12,03,48,8.20
2018,03,12,03,49,8.20
2018,03,12,03,50,8.20
2018,03,12,03,51,8.20
2018,03,12,03,52,8.20
2018,03,12,03,53,8.20
2018,03,12,03,54,8.20
2018,03,12,03,55,8.20
2018,03,12,03,56,8.20
2018,03,12,03,57,8.20
2018,03,12,03,58,8.20
2018,03,12,03,59,8.20
2018,03,12,04,00,8.20
2018,03,12,04,01,8.10
2018,03,12,04,02,8.10
2018,03,12,04,03,8.10
2018,03,12,04,04,8.10
2018,03,12,04,05,8.10
2018,03,12,04,06,8.10
2018,03,12,04,07,8.10
2018,03,12,04,08,8.10
2018,03,12,04,09,8.10
2018,03,12,04,10,8.00
2018,03,12,04,11,8.00
2018,03,12,04,12,8.00
2018,03,12,04,13,8.00
2018,03,12,04,14,8.00
2018,03,12,04,15,8.00
2018,03,12,04,16,8.00
2018,03,12,04,17,8.00
2018,03,12,04,18,8.00
2018,03,12,04,19,8.00
2018,03,12,04,20,8.00
2018,03,12,04,21,8.10
2018,03,12,04,22,8.10
2018,03,12,04,23,8.10
2018,03,12,04,24,8.10
2018,03,12,04,25,8.10
2018,03,12,04,26,8.10
2018,03,12,04,27,8.10
2018,03,12,04,28,8.00
2018,03,12,04,29,8.10
2018,03,12,04,30,8.10
2018,03,12,04,31,8.10
2018,03,12,04,32,8.10
2018,03,12,04,33,8.10
2018,03,12,04,34,8.20
2018,03,12,04,35,8.20
2018,03,12,04,36,8.20
2018,03,12,04,37,8.20
2018,03,12,04,38,8.20
2018,03,12,04,39,8.20
2018,03,12,04,40,8.20
2018,03,12,04,41,8.20
2018,03,12,04,42,8.20
2018,03,12,04,43,8.20
2018,03,12,04,44,8.20
2018,03,12,04,45,8.10
2018,03,12,04,46,8.10
2018,03,12,04,47,8.10
2018,03,12,04,48,8.10
2018,03,12,04,49,8.10
2018,03,12,04,50,8.10
2018,03,12,04,51,8.10
2018,03,12,04,52,8.10
2018,03,12,04,53,8.10
2018,03,12,04,54,8.10
2018,03,12,04,55,8.10
2018,03,12,04,56,8.10
2018,03,12,04,57,8.10
2018,03,12,04,58,8.10
2018,03,12,04,59,8.10
2018,03,12,05,00,8.10
2018,03,12,05,01,8.10
2018,03,12,05,02,8.20
2018,03,12,05,03,8.20
2018,03,12,05,04,8.20
2018,03,12,05,05,8.20
2018,03,12,05,06,8.20
2018,03,12,05,07,8.20
2018,03,12,05,08,8.20
2018,03,12,05,09,8.20
2018,03,12,05,10,8.20
2018,03,12,05,11,8.20
2018,03,12,05,12,8.20
2018,03,12,05,13,8.20
2018,03,12,05,14,8.20
2018,03,12,05,15,8.20
2018,03,12,05,16,8.20
2018,03,12,05,17,8.20
2018,03,12,05,18,8.10
2018,03,12,05,19,8.10
2018,03,12,05,20,8.10
2018,03,12,05,21,8.10
2018,03,12,05,22,8.10
2018,03,12,05,23,8.10
2018,03,12,05,24,8.10
2018,03,12,05,25,8.10
2018,03,12,05,26,8.00
2018,03,12,05,27,8.10
2018,03,12,05,28,8.10
2018,03,12,05,29,8.10
2018,03,12,05,30,8.10
2018,03,12,05,31,8.00
2018,03,12,05,32,8.10
2018,03,12,05,33,8.10
2018,03,12,05,34,8.10
2018,03,12,05,35,8.00
2018,03,12,05,36,8.00
2018,03,12,05,37,8.00
2018,03,12,05,38,8.00
2018,03,12,05,39,8.00
2018,03,12,05,40,7.90
2018,03,12,05,41,7.90
2018,03,12,05,42,7.90
2018,03,12,05,43,7.90
2018,03,12,05,44,7.90
2018,03,12,05,45,7.90
2018,03,12,05,46,8.00
2018,03,12,05,47,8.00
2018,03,12,05,48,8.10
2018,03,12,05,49,8.20
2018,03,12,05,50,8.20
2018,03,12,05,51,8.20
2018,03,12,05,52,8.20
2018,03,12,05,53,8.20
2018,03,12,05,54,8.20
2018,03,12,05,55,8.20
2018,03,12,05,56,8.20
2018,03,12,05,57,8.10
2018,03,12,05,58,8.10
2018,03,12,05,59,8.10
2018,03,12,06,00,8.00
2018,03,12,06,01,8.00
2018,03,12,06,02,8.00
2018,03,12,06,03,8.10
2018,03,12,06,04,8.10
2018,03,12,06,05,8.20
2018,03,12,06,06,8.20
2018,03,12,06,07,8.20
2018,03,12,06,08,8.20
2018,03,12,06,09,8.20
2018,03,12,06,10,8.20
2018,03,12,06,11,8.30
2018,03,12,06,12,8.30
2018,03,12,06,13,8.30
2018,03,12,06,14,8.30
2018,03,12,06,15,8.20
2018,03,12,06,16,8.20
2018,03,12,06,17,8.20
2018,03,12,06,18,8.20
2018,03,12,06,19,8.10
2018,03,12,06,20,8.10
2018,03,12,06,21,8.10
2018,03,12,06,22,8.10
2018,03,12,06,23,8.10
2018,03,12,06,24,8.10
2018,03,12,06,25,8.20
2018,03,12,06,26,8.20
2018,03,12,06,27,8.20
2018,03,12,06,28,8.20
2018,03,12,06,29,8.20
2018,03,12,06,30,8.10
2018,03,12,06,31,8.10
2018,03,12,06,32,8.20
2018,03,12,06,33,8.20
2018,03,12,06,34,8.20
2018,03,12,06,35,8.20
2018,03,12,06,36,8.20
2018,03,12,06,37,8.30
2018,03,12,06,38,8.30
2018,03,12,06,39,8.20
2018,03,12,06,40,8.30
2018,03,12,06,41,8.30
2018,03,12,06,42,8.30
2018,03,12,06,43,8.30
2018,03,12,06,44,8.30
2018,03,12,06,45,8.30
2018,03,12,06,46,8.30
2018,03,12,06,47,8.30
2018,03,12,06,48,8.30
2018,03,12,06,49,8.30
2018,03,12,06,50,8.20
2018,03,12,06,51,8.20
2018,03,12,06,52,8.20
2018,03,12,06,53,8.20
2018,03,12,06,54,8.20
2018,03,12,06,55,8.20
2018,03,12,06,56,8.20
2018,03,12,06,57,8.20
2018,03,12,06,58,8.20
2018,03,12,06,59,8.20
2018,03,12,07,00,8.20
2018,03,12,07,01,8.10
2018,03,12,07,02,8.20
2018,03,12,07,03,8.20
2018,03,12,07,04,8.20
2018,03,12,07,05,8.20
2018,03,12,07,06,8.20
2018,03,12,07,07,8.20
2018,03,12,07,08,8.30
2018,03,12,07,09,8.30
2018,03,12,07,10,8.30
2018,03,12,07,11,8.30
2018,03,12,07,12,8.30
2018,03,12,07,13,8.30
2018,03,12,07,14,8.30
2018,03,12,07,15,8.20
2018,03,12,07,16,8.20
2018,03,12,07,17,8.20
2018,03,12,07,18,8.20
2018,03,12,07,19,8.20
2018,03,12,07,20,8.10
2018,03,12,07,21,8.10
2018,03,12,07,22,8.10
2018,03,12,07,23,8.10
2018,03,12,07,24,8.10
2018,03,12,07,25,8.10
2018,03,12,07,26,8.10
2018,03,12,07,27,8.10
2018,03,12,07,28,8.10
2018,03,12,07,29,8.20
2018,03,12,07,30,8.20
2018,03,12,07,31,8.20
2018,03,12,07,32,8.20
2018,03,12,07,33,8.30
2018,03,12,07,34,8.30
2018,03,12,07,35,8.30
2018,03,12,07,36,8.30
2018,03,12,07,37,8.30
2018,03,12,07,38,8.20
2018,03,12,07,39,8.20
2018,03,12,07,40,8.10
2018,03,12,07,41,8.10
2018,03,12,07,42,8.10
2018,03,12,07,43,8.10
2018,03,12,07,44,8.10
2018,03,12,07,45,8.10
2018,03,12,07,46,8.10
2018,03,12,07,47,8.10
2018,03,12,07,48,8.10
2018,03,12,07,49,8.20
2018,03,12,07,50,8.20
2018,03,12,07,51,8.20
2018,03,12,07,52,8.20
2018,03,12,07,53,8.20
2018,03,12,07,54,8.20
2018,03,12,07,55,8.10
2018,03,12,07,56,8.10
2018,03,12,07,57,8.10
2018,03,12,07,58,8.10
2018,03,12,07,59,8.10
2018,03,12,08,00,8.10
2018,03,12,08,01,8.10
2018,03,12,08,02,8.10
2018,03,12,08,03,8.10
2018,03,12,08,04,8.10
2018,03,12,08,05,8.10
2018,03,12,08,06,8.10
2018,03,12,08,07,8.20
2018,03,12,08,08,8.20
2018,03,12,08,09,8.20
2018,03,12,08,10,8.20
2018,03,12,08,11,8.20
2018,03,12,08,12,8.20
2018,03,12,08,13,8.20
2018,03,12,08,14,8.20
2018,03,12,08,15,8.20
2018,03,12,08,16,8.20
2018,03,12,08,17,8.20
2018,03,12,08,18,8.10
2018,03,12,08,19,8.10
2018,03,12,08,20,8.10
2018,03,12,08,21,8.10
2018,03,12,08,22,8.20
2018,03,12,08,23,8.10
2018,03,12,08,24,8.10
2018,03,12,08,25,8.10
2018,03,12,08,26,8.10
2018,03,12,08,27,8.10
2018,03,12,08,28,8.20
2018,03,12,08,29,8.20
2018,03,12,08,30,8.20
2018,03,12,08,31,8.20
2018,03,12,08,32,8.20
2018,03,12,08,33,8.20
2018,03,12,08,34,8.20
2018,03,12,08,35,8.20
2018,03,12,08,36,8.20
2018,03,12,08,37,8.20
2018,03,12,08,38,8.20
2018,03,12,08,39,8.20
2018,03,12,08,40,8.20
2018,03,12,08,41,8.20
2018,03,12,08,42,8.20
2018,03,12,08,43,8.30
2018,03,12,08,44,8.30
2018,03,12,08,45,8.30
2018,03,12,08,46,8.30
2018,03,12,08,47,8.30
2018,03,12,08,48,8.30
2018,03,12,08,49,8.30
2018,03,12,08,50,8.30
2018,03,12,08,51,8.30
2018,03,12,08,52,8.30
2018,03,12,08,53,8.30
2018,03,12,08,54,8.40
2018,03,12,08,55,8.40
2018,03,12,08,56,8.40
2018,03,12,08,57,8.40
2018,03,12,08,58,8.50
2018,03,12,08,59,8.50
2018,03,12,09,00,8.50
2018,03,12,09,01,8.50
2018,03,12,09,02,8.50
2018,03,12,09,03,8.60
2018,03,12,09,04,8.60
2018,03,12,09,05,8.50
2018,03,12,09,06,8.60
2018,03,12,09,07,8.60
2018,03,12,09,08,8.60
2018,03,12,09,09,8.50
2018,03,12,09,10,8.60
2018,03,12,09,11,8.60
2018,03,12,09,12,8.60
2018,03,12,09,13,8.60
2018,03,12,09,14,8.70
2018,03,12,09,15,8.70
2018,03,12,09,16,8.70
2018,03,12,09,17,8.70
2018,03,12,09,18,8.70
2018,03,12,09,19,8.70
2018,03,12,09,20,8.70
2018,03,12,09,21,8.70
2018,03,12,09,22,8.70
2018,03,12,09,23,8.70
2018,03,12,09,24,8.70
2018,03,12,09,25,8.70
2018,03,12,09,26,8.70
2018,03,12,09,27,8.70
2018,03,12,09,28,8.70
2018,03,12,09,29,8.70
2018,03,12,09,30,8.70
2018,03,12,09,31,8.80
2018,03,12,09,32,8.70
2018,03,12,09,33,8.70
2018,03,12,09,34,8.70
2018,03,12,09,35,8.70
2018,03,12,09,36,8.70
2018,03,12,09,37,8.70
2018,03,12,09,38,8.70
2018,03,12,09,39,8.70
2018,03,12,09,40,8.70
2018,03,12,09,41,8.70
2018,03,12,09,42,8.70
2018,03,12,09,43,8.70
2018,03,12,09,44,8.70
2018,03,12,09,45,8.80
2018,03,12,09,46,8.80
2018,03,12,09,47,8.80
2018,03,12,09,48,8.80
2018,03,12,09,49,8.80
2018,03,12,09,50,8.90
2018,03,12,09,51,8.90
2018,03,12,09,52,8.90
2018,03,12,09,53,8.90
2018,03,12,09,54,8.90
2018,03,12,09,55,8.90
2018,03,12,09,56,8.90
2018,03,12,09,57,8.90
2018,03,12,09,58,8.90
2018,03,12,09,59,8.90
2018,03,12,10,00,8.90
2018,03,12,10,01,9.00
2018,03,12,10,02,9.00
2018,03,12,10,03,9.10
2018,03,12,10,04,9.10
2018,03,12,10,05,9.10
2018,03,12,10,06,9.10
2018,03,12,10,07,9.20
2018,03,12,10,08,9.20
2018,03,12,10,09,9.20
2018,03,12,10,10,9.20
2018,03,12,10,11,9.20
2018,03,12,10,12,9.20
2018,03,12,10,13,9.20
2018,03,12,10,14,9.20
2018,03,12,10,15,9.20
2018,03,12,10,16,9.20
2018,03,12,10,17,9.20
2018,03,12,10,18,9.20
2018,03,12,10,19,9.30
2018,03,12,10,20,9.30
2018,03,12,10,21,9.30
2018,03,12,10,22,9.30
2018,03,12,10,23,9.40
2018,03,12,10,24,9.30
2018,03,12,10,25,9.40
2018,03,12,10,26,9.40
2018,03,12,10,27,9.40
2018,03,12,10,28,9.40
2018,03,12,10,29,9.40
2018,03,12,10,30,9.40
2018,03,12,10,31,9.40
2018,03,12,10,32,9.40
2018,03,12,10,33,9.40
2018,03,12,10,34,9.40
2018,03,12,10,35,9.40
2018,03,12,10,36,9.40
2018,03,12,10,37,9.40
2018,03,12,10,38,9.50
2018,03,12,10,39,9.50
2018,03,12,10,40,9.50
2018,03,12,10,41,9.50
2018,03,12,10,42,9.50
2018,03,12,10,43,9.50
2018,03,12,10,44,9.50
2018,03,12,10,45,9.50
2018,03,12,10,46,9.50
2018,03,12,10,47,9.50
2018,03,12,10,48,9.60
2018,03,12,10,49,9.60
2018,03,12,10,50,9.60
2018,03,12,10,51,9.70
2018,03,12,10,52,9.60
2018,03,12,10,53,9.60
2018,03,12,10,54,9.60
2018,03,12,10,55,9.60
2018,03,12,10,56,9.50
2018,03,12,10,57,9.50
2018,03,12,10,58,9.50
2018,03,12,10,59,9.50
2018,03,12,11,00,9.50
2018,03,12,11,01,9.60
2018,03,12,11,02,9.50
2018,03,12,11,03,9.50
2018,03,12,11,04,9.60
2018,03,12,11,05,9.60
2018,03,12,11,06,9.70
2018,03,12,11,07,9.70
2018,03,12,11,08,9.80
2018,03,12,11,09,9.80
2018,03,12,11,10,9.80
2018,03,12,11,11,9.80
2018,03,12,11,12,9.90
2018,03,12,11,13,9.90
2018,03,12,11,14,9.90
2018,03,12,11,15,9.90
2018,03,12,11,16,9.90
2018,03,12,11,17,9.90
2018,03,12,11,18,9.90
2018,03,12,11,19,9.90
2018,03,12,11,20,9.90
2018,03,12,11,21,9.90
2018,03,12,11,22,9.90
2018,03,12,11,23,9.90
2018,03,12,11,24,9.90
2018,03,12,11,25,9.80
2018,03,12,11,26,9.80
2018,03,12,11,27,9.80
2018,03,12,11,28,9.80
2018,03,12,11,29,9.70
2018,03,12,11,30,9.70
2018,03,12,11,31,9.70
2018,03,12,11,32,9.70
2018,03,12,11,33,9.80
2018,03,12,11,34,9.90
2018,03,12,11,35,9.90
2018,03,12,11,36,9.90
2018,03,12,11,37,9.90
2018,03,12,11,38,9.90
2018,03,12,11,39,9.90
2018,03,12,11,40,9.90
2018,03,12,11,41,9.90
2018,03,12,11,42,9.90
2018,03,12,11,43,10.00
2018,03,12,11,44,10.00
2018,03,12,11,45,10.10
2018,03,12,11,46,10.10
2018,03,12,11,47,10.10
2018,03,12,11,48,10.20
2018,03,12,11,49,10.20
2018,03,12,11,50,10.20
2018,03,12,11,51,10.30
2018,03,12,11,52,10.30
2018,03,12,11,53,10.30
2018,03,12,11,54,10.30
2018,03,12,11,55,10.40
2018,03,12,11,56,10.40
2018,03,12,11,57,10.40
2018,03,12,11,58,10.40
2018,03,12,11,59,10.40
2018,03,12,12,00,10.40
2018,03,12,12,01,10.30
2018,03,12,12,02,10.30
2018,03,12,12,03,10.30
2018,03,12,12,04,10.30
2018,03,12,12,05,10.30
2018,03,12,12,06,10.30
2018,03,12,12,07,10.30
2018,03,12,12,08,10.40
2018,03,12,12,09,10.50
2018,03,12,12,10,10.50
2018,03,12,12,11,10.60
2018,03,12,12,12,10.60
2018,03,12,12,13,10.60
2018,03,12,12,14,10.60
2018,03,12,12,15,10.70
2018,03,12,12,16,10.70
2018,03,12,12,17,10.60
2018,03,12,12,18,10.60
2018,03,12,12,19,10.50
2018,03,12,12,20,10.50
2018,03,12,12,21,10.50
2018,03,12,12,22,10.50
2018,03,12,12,23,10.50
2018,03,12,12,24,10.50
2018,03,12,12,25,10.50
2018,03,12,12,26,10.60
2018,03,12,12,27,10.70
2018,03,12,12,28,10.70
2018,03,12,12,29,10.60
2018,03,12,12,30,10.60
2018,03,12,12,31,10.60
2018,03,12,12,32,10.60
2018,03,12,12,33,10.60
2018,03,12,12,34,10.60
2018,03,12,12,35,10.60
2018,03,12,12,36,10.60
2018,03,12,12,37,10.60
2018,03,12,12,38,10.60
2018,03,12,12,39,10.60
2018,03,12,12,40,10.60
2018,03,12,12,41,10.60
2018,03,12,12,42,10.60
2018,03,12,12,43,10.60
2018,03,12,12,44,10.60
2018,03,12,12,45,10.60
2018,03,12,12,46,10.70
2018,03,12,12,47,10.70
2018,03,12,12,48,10.80
2018,03,12,12,49,10.80
2018,03,12,12,50,10.80
2018,03,12,12,51,10.80
2018,03,12,12,52,10.80
2018,03,12,12,53,10.80
2018,03,12,12,54,10.80
2018,03,12,12,55,10.80
2018,03,12,12,56,10.80
2018,03,12,12,57,10.80
2018,03,12,12,58,10.80
2018,03,12,12,59,10.80
2018,03,12,13,00,10.90
2018,03,12,13,01,11.00
2018,03,12,13,02,11.00
2018,03,12,13,03,11.00
2018,03,12,13,04,11.10
2018,03,12,13,05,11.10
2018,03,12,13,06,11.10
2018,03,12,13,07,11.10
2018,03,12,13,08,11.20
2018,03,12,13,09,11.20
2018,03,12,13,10,11.20
2018,03,12,13,11,11.20
2018,03,12,13,12,11.20
2018,03,12,13,13,11.20
2018,03,12,13,14,11.10
2018,03,12,13,15,11.20
2018,03,12,13,16,11.20
2018,03,12,13,17,11.20
2018,03,12,13,18,11.20
2018,03,12,13,19,11.30
2018,03,12,13,20,11.30
2018,03,12,13,21,11.40
2018,03,12,13,22,11.50
2018,03,12,13,23,11.50
2018,03,12,13,24,11.60
2018,03,12,13,25,11.60
2018,03,12,13,26,11.50
2018,03,12,13,27,11.40
2018,03,12,13,28,11.40
2018,03,12,13,29,11.40
2018,03,12,13,30,11.40
2018,03,12,13,31,11.50
2018,03,12,13,32,11.50
2018,03,12,13,33,11.50
2018,03,12,13,34,11.60
2018,03,12,13,35,11.60
2018,03,12,13,36,11.60
2018,03,12,13,37,11.50
2018,03,12,13,38,11.50
2018,03,12,13,39,11.60
2018,03,12,13,40,11.70
2018,03,12,13,41,11.70
2018,03,12,13,42,11.70
2018,03,12,13,43,11.70
2018,03,12,13,44,11.80
2018,03,12,13,45,11.80
2018,03,12,13,46,11.80
2018,03,12,13,47,11.80
2018,03,12,13,48,11.80
2018,03,12,13,49,11.90
2018,03,12,13,50,11.90
2018,03,12,13,51,11.90
2018,03,12,13,52,11.90
2018,03,12,13,53,11.90
2018,03,12,13,54,11.90
2018,03,12,13,55,11.90
2018,03,12,13,56,12.00
2018,03,12,13,57,12.00
2018,03,12,13,58,12.00
2018,03,12,13,59,12.00
2018,03,12,14,00,12.10
2018,03,12,14,01,12.10
2018,03,12,14,02,12.10
2018,03,12,14,03,12.10
2018,03,12,14,04,12.10
2018,03,12,14,05,12.10
2018,03,12,14,06,12.10
2018,03,12,14,07,12.10
2018,03,12,14,08,12.10
2018,03,12,14,09,12.10
2018,03,12,14,10,12.10
2018,03,12,14,11,12.10
2018,03,12,14,12,12.10
2018,03,12,14,13,12.10
2018,03,12,14,14,12.10
2018,03,12,14,15,12.20
2018,03,12,14,16,12.30
2018,03,12,14,17,12.50
2018,03,12,14,18,12.60
2018,03,12,14,19,12.60
2018,03,12,14,20,12.60
2018,03,12,14,21,12.50
2018,03,12,14,22,12.50
2018,03,12,14,23,12.40
2018,03,12,14,24,12.30
2018,03,12,14,25,12.40
2018,03,12,14,26,12.40
2018,03,12,14,27,12.60
2018,03,12,14,28,12.70
2018,03,12,14,29,12.70
2018,03,12,14,30,12.70
2018,03,12,14,31,12.70
2018,03,12,14,32,12.60
2018,03,12,14,33,12.50
2018,03,12,14,34,12.50
2018,03,12,14,35,12.50
2018,03,12,14,36,12.50
2018,03,12,14,37,12.40
2018,03,12,14,38,12.30
2018,03,12,14,39,12.30
2018,03,12,14,40,12.30
2018,03,12,14,41,12.30
2018,03,12,14,42,12.30
2018,03,12,14,43,12.30
2018,03,12,14,44,12.40
2018,03,12,14,45,12.50
2018,03,12,14,46,12.60
2018,03,12,14,47,12.60
2018,03,12,14,48,12.50
2018,03,12,14,49,12.40
2018,03,12,14,50,12.40
2018,03,12,14,51,12.40
2018,03,12,14,52,12.30
2018,03,12,14,53,12.30
2018,03,12,14,54,12.40
2018,03,12,14,55,12.50
2018,03,12,14,56,12.50
2018,03,12,14,57,12.60
2018,03,12,14,58,12.60
2018,03,12,14,59,12.50
2018,03,12,15,00,12.50
2018,03,12,15,01,12.40
2018,03,12,15,02,12.40
2018,03,12,15,03,12.40
2018,03,12,15,04,12.40
2018,03,12,15,05,12.30
2018,03,12,15,06,12.30
2018,03,12,15,07,12.50
2018,03,12,15,08,12.50
2018,03,12,15,09,12.50
2018,03,12,15,10,12.40
2018,03,12,15,11,12.40
2018,03,12,15,12,12.50
2018,03,12,15,13,12.50
2018,03,12,15,14,12.70
2018,03,12,15,15,12.80
2018,03,12,15,16,12.90
2018,03,12,15,17,13.00
2018,03,12,15,18,13.00
2018,03,12,15,19,13.10
2018,03,12,15,20,13.10
2018,03,12,15,21,13.10
2018,03,12,15,22,13.20
2018,03,12,15,23,13.20
2018,03,12,15,24,13.20
2018,03,12,15,25,13.20
2018,03,12,15,26,13.10
2018,03,12,15,27,13.00
2018,03,12,15,28,13.00
2018,03,12,15,29,12.90
2018,03,12,15,30,12.90
2018,03,12,15,31,12.90
2018,03,12,15,32,12.90
2018,03,12,15,33,12.90
2018,03,12,15,34,12.90
2018,03,12,15,35,13.00
2018,03,12,15,36,13.10
2018,03,12,15,37,13.20
2018,03,12,15,38,13.20
2018,03,12,15,39,13.10
2018,03,12,15,40,13.10
2018,03,12,15,41,13.20
2018,03,12,15,42,13.40
2018,03,12,15,43,13.60
2018,03,12,15,44,13.80
2018,03,12,15,45,13.90
2018,03,12,15,46,13.90
2018,03,12,15,47,13.90
2018,03,12,15,48,13.80
2018,03,12,15,49,13.70
2018,03,12,15,50,13.70
2018,03,12,15,51,13.70
2018,03,12,15,52,13.70
2018,03,12,15,53,13.70
2018,03,12,15,54,13.50
2018,03,12,15,55,13.40
2018,03,12,15,56,13.30
2018,03,12,15,57,13.30
2018,03,12,15,58,13.20
2018,03,12,15,59,13.20
2018,03,12,16,00,13.20
2018,03,12,16,01,13.20
2018,03,12,16,02,13.30
2018,03,12,16,03,13.20
2018,03,12,16,04,13.10
2018,03,12,16,05,13.10
2018,03,12,16,06,13.00
2018,03,12,16,07,12.90
2018,03,12,16,08,12.80
2018,03,12,16,09,12.80
2018,03,12,16,10,12.80
2018,03,12,16,11,12.80
2018,03,12,16,12,12.70
2018,03,12,16,13,12.70
2018,03,12,16,14,12.70
2018,03,12,16,15,12.60
2018,03,12,16,16,12.40
2018,03,12,16,17,12.30
2018,03,12,16,18,12.30
2018,03,12,16,19,12.30
2018,03,12,16,20,12.30
2018,03,12,16,21,12.30
2018,03,12,16,22,12.40
2018,03,12,16,23,12.60
2018,03,12,16,24,12.60
2018,03,12,16,25,12.60
2018,03,12,16,26,12.60
2018,03,12,16,27,12.70
2018,03,12,16,28,12.70
2018,03,12,16,29,12.80
2018,03,12,16,30,12.80
2018,03,12,16,31,12.70
2018,03,12,16,32,12.70
2018,03,12,16,33,12.80
2018,03,12,16,34,12.80
2018,03,12,16,35,12.80
2018,03,12,16,36,12.70
2018,03,12,16,37,12.70
2018,03,12,16,38,12.70
2018,03,12,16,39,12.70
2018,03,12,16,40,12.60
2018,03,12,16,41,12.60
2018,03,12,16,42,12.60
2018,03,12,16,43,12.50
2018,03,12,16,44,12.50
2018,03,12,16,45,12.50
2018,03,12,16,46,12.60
2018,03,12,16,47,12.70
2018,03,12,16,48,12.90
2018,03,12,16,49,13.00
2018,03,12,16,50,13.00
2018,03,12,16,51,13.10
2018,03,12,16,52,13.10
2018,03,12,16,53,13.10
2018,03,12,16,54,13.20
2018,03,12,16,55,13.20
2018,03,12,16,56,13.20
2018,03,12,16,57,13.20
2018,03,12,16,58,13.20
2018,03,12,16,59,13.20
2018,03,12,17,00,13.30
2018,03,12,17,01,13.30
2018,03,12,17,02,13.40
2018,03,12,17,03,13.40
2018,03,12,17,04,13.40
2018,03,12,17,05,13.30
2018,03,12,17,06,13.30
2018,03,12,17,07,13.20
2018,03,12,17,08,13.10
2018,03,12,17,09,13.00
2018,03,12,17,10,13.00
2018,03,12,17,11,12.90
2018,03,12,17,12,12.80
2018,03,12,17,13,12.80
2018,03,12,17,14,12.80
2018,03,12,17,15,12.70
2018,03,12,17,16,12.70
2018,03,12,17,17,12.70
2018,03,12,17,18,12.70
2018,03,12,17,19,12.70
2018,03,12,17,20,12.70
2018,03,12,17,21,12.70
2018,03,12,17,22,12.60
2018,03,12,17,23,12.50
2018,03,12,17,24,12.40
2018,03,12,17,25,12.40
2018,03,12,17,26,12.40
2018,03,12,17,27,12.50
2018,03,12,17,28,12.60
2018,03,12,17,29,12.60
2018,03,12,17,30,12.70
2018,03,12,17,31,12.80
2018,03,12,17,32,12.80
2018,03,12,17,33,12.70
2018,03,12,17,34,12.70
2018,03,12,17,35,12.60
2018,03,12,17,36,12.60
2018,03,12,17,37,12.60
2018,03,12,17,38,12.60
2018,03,12,17,39,12.60
2018,03,12,17,40,12.60
2018,03,12,17,41,12.50
2018,03,12,17,42,12.50
2018,03,12,17,43,12.40
2018,03,12,17,44,12.40
2018,03,12,17,45,12.60
2018,03,12,17,46,12.70
2018,03,12,17,47,12.70
2018,03,12,17,48,12.60
2018,03,12,17,49,12.50
2018,03,12,17,50,12.40